Wind_Speed
37 37 37 37 36 36 35 35 35 35 35 35 35 35 35 35 35 35 35 35 35 35 35 35 35 35 34 34 34 34 34 33 33 32 32 31 30 30 30 29 29 29 29 29 28 28 28 28 28 27 28 27 27 27 26 27 26 26 27 26 26 26 27 28 28 29 30 29 29 29 28 29 29 28 28 28 27 26 27 29 28 29 32 34 34 34 35 34
35 36 36 36 35 35 34 34 34 34 33 33 33 33 33 33 33 33 33 33 33 33 33 33 33 33 33 33 33 33 33 33 32 32 32 31 30 30 30 29 29 29 28 28 28 28 28 28 28 27 27 27 27 27 27 27 27 27 27 26 27 27 27 28 28 28 29 29 29 28 28 29 29 28 27 28 27 27 28 29 31 32 34 36 36 35 35 33
33 34 35 34 34 34 33 33 33 33 33 33 33 33 33 32 31 31 31 31 31 31 32 31 31 31 31 31 31 31 32 32 31 31 31 30 30 30 29 29 29 29 29 29 28 28 28 28 27 27 27 27 27 27 27 27 27 27 26 27 27 27 27 28 28 28 29 29 29 28 28 28 28 28 27 28 27 27 28 28 32 35 35 36 36 34 33 32
32 32 33 33 33 32 32 32 32 32 32 32 32 33 33 33 32 30 29 29 30 30 30 29 29 29 29 29 30 30 31 31 31 31 30 30 30 29 29 29 29 29 28 28 28 28 27 27 27 27 27 27 26 27 26 26 26 26 26 27 27 27 27 27 27 27 28 29 28 27 27 27 28 28 27 28 27 29 31 30 31 34 33 33 34 33 32 31
30 30 31 31 31 31 30 30 30 31 31 31 31 31 31 32 33 32 30 28 28 28 29 28 28 28 28 28 28 28 29 30 30 30 30 30 30 29 28 28 28 28 28 28 27 27 26 26 26 26 27 27 27 26 26 25 25 25 25 26 26 26 26 26 26 27 27 27 27 27 26 27 27 28 28 28 29 31 32 31 32 34 33 33 33 32 32 32
28 28 28 28 29 29 29 29 29 29 29 29 30 30 30 30 30 32 32 30 28 27 27 28 27 27 27 28 28 28 28 29 29 29 30 29 29 29 28 28 27 27 27 26 26 26 26 26 26 26 26 27 26 26 25 25 25 25 25 25 25 25 25 26 26 26 26 27 27 26 26 26 27 28 28 29 30 31 31 31 33 33 32 33 33 33 32 33
27 27 26 26 26 27 27 27 27 27 27 28 28 29 28 28 28 28 30 31 31 29 27 27 27 27 27 27 27 28 28 28 28 28 28 28 28 27 27 27 26 26 26 25 25 25 25 25 26 26 26 26 25 25 25 24 24 24 24 24 24 24 24 25 25 25 25 26 26 26 26 27 28 28 29 29 30 30 30 31 32 32 33 33 34 33 34 35
26 25 24 23 24 25 25 25 26 26 27 27 28 28 28 28 28 27 28 29 30 31 30 27 26 26 26 26 26 27 27 27 27 28 27 27 26 26 26 25 25 25 25 25 24 24 25 25 25 25 25 24 24 24 24 24 24 23 23 23 23 22 22 23 22 23 23 25 26 26 26 27 29 29 29 29 29 30 30 31 31 32 33 33 34 34 34 35
26 25 23 22 22 23 23 23 24 24 25 26 27 27 28 28 29 29 28 28 28 30 30 29 28 26 26 26 26 27 27 26 27 27 27 26 26 25 25 25 24 24 24 24 24 24 24 24 24 23 23 23 23 24 24 23 23 23 23 23 22 21 21 20 20 21 22 24 25 26 27 28 29 29 29 29 29 30 30 31 31 31 32 33 33 34 34 35
26 25 23 22 22 22 21 21 22 22 23 24 25 25 26 27 28 29 30 29 29 29 30 30 30 29 28 27 27 27 26 26 26 26 26 26 26 25 25 25 24 24 24 23 23 23 23 23 22 22 23 23 23 23 23 23 23 23 23 22 22 21 19 19 20 21 21 23 25 27 28 29 30 29 29 30 30 30 31 31 31 31 32 32 33 33 34 35
27 26 24 23 22 21 21 20 20 21 21 22 23 23 24 25 26 27 28 28 28 28 28 29 29 30 29 28 28 27 26 26 26 25 25 25 25 25 25 25 25 24 24 23 22 22 22 22 22 22 22 22 23 23 23 23 22 22 22 21 21 20 19 18 20 21 22 23 25 27 29 30 30 30 30 30 31 31 31 31 32 33 33 33 33 34 34 35
28 27 25 24 23 22 21 21 21 21 21 21 21 22 22 22 23 24 24 25 25 26 27 27 27 28 28 28 28 26 25 25 25 25 25 25 25 25 25 25 25 24 24 23 22 22 22 21 21 21 21 21 22 22 22 23 22 22 22 21 20 20 19 18 19 21 23 24 26 28 29 30 30 31 32 32 32 32 32 32 33 33 33 33 33 33 33 33
29 28 26 25 23 23 22 22 23 23 23 23 23 22 22 22 23 23 22 22 22 23 24 25 25 26 26 27 27 26 25 25 25 25 25 25 25 25 25 25 24 24 23 22 22 21 21 21 20 20 20 20 21 21 22 22 22 22 22 21 20 19 21 19 19 21 23 25 26 28 28 28 32 35 35 34 33 32 32 32 32 33 32 32 32 32 31 30
29 28 27 26 25 24 24 24 25 25 25 25 25 25 25 25 25 25 24 23 22 22 22 22 24 25 26 27 26 24 25 24 24 25 24 25 25 25 26 25 25 24 23 22 22 22 21 21 20 20 20 20 20 21 22 22 23 23 22 22 19 19 22 20 18 21 23 26 27 29 28 27 33 37 35 35 34 33 33 32 32 32 31 31 30 29 28 28
30 29 28 27 26 25 25 26 27 27 27 27 27 27 27 28 28 28 27 26 25 24 23 22 23 24 25 28 26 24 24 25 25 25 25 25 26 26 26 26 25 24 24 24 23 23 23 22 21 21 21 21 21 22 23 23 23 23 22 21 19 19 22 20 19 22 23 26 28 30 28 27 34 37 34 36 35 34 33 32 32 31 31 30 29 27 26 26
31 30 29 28 27 27 27 28 29 30 31 31 31 31 31 31 31 31 31 30 29 28 27 26 25 25 25 28 27 24 24 26 26 25 26 27 27 27 26 26 26 26 25 25 24 24 23 23 23 22 21 21 21 22 23 23 23 22 21 20 19 20 22 20 21 22 23 26 28 30 29 30 35 36 34 36 37 35 34 33 32 32 31 30 29 27 26 25
32 31 30 29 28 28 28 30 32 33 34 34 34 34 34 34 34 34 34 33 32 31 31 30 29 28 27 28 28 25 24 26 26 26 26 27 27 27 27 27 27 27 26 25 25 25 24 24 23 23 23 22 22 23 24 24 23 22 21 21 21 21 21 21 22 23 23 26 28 31 32 32 33 34 34 36 37 36 35 33 32 32 31 31 29 28 27 25
32 31 30 29 28 28 29 30 33 34 35 35 35 35 35 35 35 36 36 36 34 34 33 33 33 32 31 31 30 28 26 26 27 27 27 27 28 28 28 28 28 28 28 27 26 26 26 25 25 26 25 23 23 24 24 24 24 22 21 21 22 21 21 23 23 23 24 25 27 30 32 32 31 34 35 35 37 37 36 35 32 31 31 30 30 28 27 26
33 32 31 30 29 29 29 31 33 34 34 34 34 33 33 33 34 35 36 35 34 34 34 34 34 34 34 34 32 32 31 28 28 29 29 29 29 28 28 28 28 28 28 27 27 28 27 27 28 27 24 23 23 24 25 25 24 23 22 22 22 22 23 24 24 24 24 24 27 29 31 32 29 32 36 35 35 36 36 37 34 33 33 32 31 30 29 29
32 32 31 30 29 29 29 31 33 34 34 33 33 32 31 31 32 32 32 32 33 33 32 31 31 32 34 35 34 34 34 32 31 30 30 30 30 30 29 28 28 28 28 28 28 28 28 29 28 25 23 24 25 25 27 26 24 24 23 24 24 24 25 25 24 25 25 25 26 27 30 32 29 31 36 35 34 35 34 35 34 33 33 34 33 32 32 32
32 31 31 31 30 30 30 32 33 34 34 33 32 30 29 29 29 28 28 29 30 30 29 28 28 30 32 33 33 33 34 33 32 30 29 30 31 30 29 28 27 27 27 28 28 28 29 28 25 24 25 26 26 26 27 26 25 24 24 25 25 25 26 25 24 26 26 26 25 26 29 30 29 31 36 34 32 33 32 32 31 31 31 32 32 32 33 33
32 31 31 31 31 30 31 32 33 34 34 33 31 29 28 28 27 26 25 26 28 27 26 26 26 27 30 31 32 33 32 30 28 27 27 27 29 29 27 27 27 27 28 28 28 28 29 27 25 26 26 26 27 27 26 25 25 24 25 26 25 26 26 24 25 26 27 26 26 28 30 29 29 31 33 32 30 31 31 30 29 29 29 30 30 31 32 33
32 31 31 30 30 30 31 32 33 34 33 32 30 28 27 26 25 25 24 24 27 26 25 25 24 26 29 30 29 29 28 25 24 24 24 25 26 26 25 25 26 27 28 29 28 28 28 27 27 28 27 27 27 26 25 25 25 25 26 26 25 26 25 24 26 27 27 27 27 28 30 29 28 28 29 29 28 28 28 28 27 28 28 29 30 32 32 32
31 31 31 31 31 31 31 32 33 33 32 31 29 28 26 25 24 24 22 23 27 27 24 24 25 27 28 27 27 27 25 23 24 23 23 25 25 24 24 24 26 28 28 28 28 28 29 29 28 28 27 27 27 26 25 25 25 26 27 27 25 25 23 24 27 27 27 27 26 28 30 28 26 26 27 27 26 25 25 26 26 26 28 30 31 31 31 32
30 30 30 30 31 31 31 32 32 31 31 29 28 27 26 25 24 23 22 23 27 28 25 24 25 26 27 27 27 27 25 23 23 24 25 25 24 24 25 26 27 28 27 28 28 29 29 28 27 28 27 27 27 26 26 26 26 27 27 26 24 23 23 26 28 27 27 26 26 29 27 25 26 25 25 26 24 23 24 25 26 27 28 30 31 30 31 32
28 28 28 29 29 30 30 30 30 30 30 28 27 26 25 24 23 23 23 23 27 28 26 25 26 26 27 27 27 26 25 23 23 25 26 25 25 26 26 27 28 28 28 28 29 29 29 26 26 27 27 26 26 25 25 25 26 27 27 25 24 24 24 26 29 28 26 27 28 27 24 23 26 25 24 25 23 23 24 24 25 27 28 29 30 30 31 31
26 26 26 27 28 28 28 28 29 29 29 27 26 25 24 24 23 23 23 23 27 29 27 25 26 26 26 27 26 27 26 23 23 26 25 24 26 26 27 28 27 27 28 28 29 28 26 24 26 26 25 25 25 24 24 24 26 27 26 26 25 24 24 26 28 28 27 29 28 26 24 23 24 23 24 24 22 23 25 24 26 27 27 28 29 29 30 31
24 24 24 25 26 26 27 27 28 28 27 26 25 24 24 23 23 23 23 24 28 29 27 26 25 25 26 26 26 26 25 23 23 25 24 25 26 27 28 28 25 26 28 28 29 27 25 25 27 26 26 27 25 23 23 24 27 28 27 26 25 24 23 24 26 28 29 29 27 27 26 23 22 24 25 21 20 23 24 24 26 27 27 28 29 28 28 29
22 23 23 24 25 25 25 26 27 27 26 25 24 24 23 23 23 23 24 25 27 28 27 27 26 25 25 26 26 25 24 24 24 23 24 26 26 27 27 26 26 28 29 29 30 29 27 28 28 29 29 27 22 22 24 26 27 28 27 25 23 22 22 24 25 27 29 28 27 28 26 21 20 23 24 21 20 22 22 23 25 25 26 27 28 28 28 30
22 22 23 23 24 24 24 25 25 25 24 24 23 23 23 23 23 24 24 25 26 26 26 27 27 26 25 24 25 25 24 24 23 23 25 25 26 26 26 27 28 30 30 30 31 29 27 28 29 29 27 23 22 23 25 27 27 27 25 23 22 22 22 23 24 26 28 26 27 29 26 21 19 23 24 20 18 18 20 22 23 23 25 27 28 29 29 30
22 22 22 22 22 23 23 23 23 24 24 23 23 23 23 23 23 24 23 23 25 26 27 26 26 26 24 23 23 24 24 24 24 24 24 25 25 26 27 28 29 30 30 30 30 28 27 28 28 26 24 22 23 24 24 26 27 26 23 22 22 22 22 23 24 26 25 24 27 27 25 23 22 25 25 20 17 17 18 21 22 22 24 26 27 27 27 26
22 21 21 21 21 22 22 22 22 22 23 23 23 23 23 23 23 23 22 22 25 27 27 26 26 25 24 23 22 23 23 24 24 24 24 24 25 25 26 28 28 28 29 29 28 26 26 26 25 24 23 23 22 23 24 25 25 24 23 23 22 22 23 23 24 24 22 23 27 25 24 25 25 25 22 19 18 16 17 20 19 18 19 21 22 23 23 24
20 20 20 20 20 20 21 21 21 22 22 22 22 22 23 22 21 20 21 23 25 26 25 25 25 24 23 23 23 23 23 23 23 24 24 25 25 25 27 28 28 27 27 27 26 25 25 25 25 25 24 22 22 23 22 22 22 23 23 23 23 22 23 22 22 23 21 23 25 23 24 26 25 25 21 20 20 15 16 19 16 14 13 14 17 19 21 22
19 19 19 19 19 20 20 20 21 21 22 22 22 22 22 21 19 19 21 23 24 24 23 23 23 23 23 23 23 23 23 24 24 24 24 25 25 26 27 27 27 28 28 27 26 26 27 26 26 25 22 20 20 19 19 21 23 25 25 25 26 24 22 19 20 21 20 22 23 22 24 24 24 24 20 20 20 15 17 19 17 14 12 12 16 17 19 21
18 18 18 18 19 19 20 20 20 21 21 22 22 21 20 20 20 20 21 22 22 22 21 21 22 22 22 23 23 23 23 23 23 24 24 25 25 24 25 26 27 28 29 29 27 27 28 27 26 24 21 20 19 18 20 23 24 26 27 27 26 24 22 20 19 19 18 19 20 19 20 21 23 24 20 19 19 16 19 22 20 18 14 13 15 16 19 21
18 18 18 17 18 18 19 19 20 20 20 21 21 20 20 20 20 21 21 21 21 22 21 21 22 22 22 22 23 23 23 22 23 23 23 24 24 25 26 26 27 27 28 29 28 27 27 27 27 24 22 22 22 22 24 26 26 26 27 27 23 21 23 22 20 20 18 18 19 17 16 19 23 24 21 20 18 16 20 23 22 20 18 16 17 17 18 19
17 17 17 17 17 17 18 18 18 18 19 19 19 19 20 20 20 20 20 20 21 22 22 22 22 22 22 22 23 23 23 22 23 23 23 23 24 25 25 26 26 27 28 28 28 28 27 27 27 25 24 24 24 25 26 28 28 25 24 23 20 21 23 22 19 19 19 19 19 18 16 18 23 23 22 22 20 18 20 24 22 20 21 21 21 20 20 20
17 16 16 16 16 17 17 17 17 17 17 17 18 18 19 19 18 18 19 20 21 22 22 22 23 23 23 23 23 24 24 23 23 23 23 23 22 23 24 25 25 26 28 28 28 29 28 28 28 26 25 25 26 27 28 29 28 26 24 21 19 21 23 22 22 20 18 17 19 18 15 18 23 21 20 23 23 20 21 26 25 21 22 24 24 24 23 22
16 15 15 15 15 15 15 15 15 15 16 16 17 18 18 17 17 18 19 19 20 21 22 22 22 22 23 24 24 24 24 24 23 23 24 23 23 23 23 23 23 25 26 26 28 29 28 29 28 26 26 27 27 29 29 28 28 26 25 22 21 23 21 20 21 21 19 17 16 17 16 18 21 19 18 22 24 23 22 24 25 22 22 24 25 24 24 24
15 15 14 14 14 14 14 14 14 14 14 15 16 16 16 16 17 17 18 19 20 20 21 21 22 22 23 24 24 24 25 26 25 25 25 24 24 24 23 23 24 24 24 24 26 28 28 29 28 26 26 27 28 29 29 28 27 26 26 25 23 23 22 21 21 20 19 16 14 16 17 17 18 18 19 23 26 25 22 22 25 25 24 25 25 24 25 28
15 14 13 13 13 13 13 13 13 13 14 15 15 16 16 17 17 17 18 19 19 20 20 21 21 22 22 24 25 25 25 27 27 26 27 27 26 25 25 24 24 24 24 24 25 26 27 28 27 27 25 25 27 30 30 29 28 26 26 25 23 22 24 23 21 20 21 20 17 17 19 18 15 16 19 23 27 26 22 21 24 24 23 21 20 20 22 25
14 13 13 12 12 12 13 12 13 13 14 14 15 15 16 16 16 16 17 17 18 19 20 21 22 22 23 24 25 25 25 26 26 27 29 29 28 28 26 25 25 25 26 26 25 25 25 25 26 27 26 25 27 29 31 31 30 28 27 25 24 24 25 24 20 20 22 23 20 20 21 19 14 14 17 21 25 27 25 23 22 21 19 17 17 17 19 22
14 13 12 12 12 12 12 12 13 13 13 14 14 14 14 14 14 14 14 15 16 18 19 21 22 23 24 24 25 25 24 24 26 28 29 30 30 29 28 27 27 27 28 29 28 26 26 26 27 27 28 28 28 29 30 32 32 32 32 29 26 25 25 24 22 22 23 23 21 22 23 19 14 14 15 16 19 22 22 22 22 21 20 19 19 20 21 25
13 13 12 12 12 12 12 12 12 12 12 12 13 12 13 13 13 13 13 14 15 16 18 19 20 22 23 24 25 25 24 23 24 27 29 31 31 30 30 30 30 29 29 29 29 29 29 29 28 28 29 30 30 31 32 32 33 35 34 31 28 26 25 24 24 25 25 24 23 22 21 19 16 15 14 14 15 16 16 18 19 20 21 20 21 23 25 26
13 13 12 12 12 12 11 11 11 11 11 11 11 11 12 12 12 12 13 14 15 16 17 18 19 21 22 24 25 26 26 24 24 27 29 31 31 31 31 31 31 31 30 28 27 29 31 31 29 29 30 32 32 32 32 31 32 34 34 31 29 28 27 26 26 27 27 26 24 22 21 19 16 15 15 15 15 15 15 16 16 18 20 21 23 25 26 24
13 12 12 12 11 11 10 10 10 10 10 10 10 11 12 12 12 13 13 14 15 16 17 18 19 20 22 23 25 26 27 25 25 28 31 30 31 32 32 32 32 32 30 28 27 28 29 30 29 29 31 33 33 32 31 31 30 31 32 32 31 29 29 29 29 29 28 27 26 24 22 19 15 15 15 15 15 16 16 16 16 17 18 20 22 23 22 21
13 12 12 11 10 10 9 9 8 8 9 9 10 11 12 12 13 13 14 14 15 15 16 16 16 17 18 20 22 24 27 26 25 28 31 31 31 31 31 31 31 31 31 30 29 28 28 28 28 29 31 33 33 33 32 32 32 31 31 32 32 32 31 32 32 31 30 29 26 23 21 19 17 17 16 16 17 16 16 16 17 17 17 18 18 18 17 17
12 12 11 10 9 9 8 8 7 8 8 9 10 10 11 12 13 14 14 14 14 14 14 14 14 15 16 18 19 21 25 26 26 29 32 33 33 32 30 30 29 29 30 30 30 30 28 26 26 28 31 33 34 34 33 33 33 33 33 32 33 33 33 34 33 32 31 31 27 24 22 20 18 18 19 19 18 17 16 16 17 18 18 17 17 16 16 16
12 12 11 10 9 8 8 7 7 7 8 9 9 10 11 11 12 13 14 15 14 14 15 16 16 16 17 19 20 21 24 27 28 31 34 34 34 34 32 31 29 27 27 28 29 29 30 28 26 26 29 33 36 36 34 33 34 35 34 33 33 34 34 35 34 32 32 31 29 27 24 21 19 19 19 20 20 19 17 17 17 17 17 18 17 17 16 16
12 11 10 9 8 7 7 7 6 7 7 8 9 9 10 11 11 13 14 16 16 16 17 17 17 18 19 20 21 23 25 28 30 32 33 34 35 35 34 33 31 29 27 27 27 29 29 29 28 27 27 29 33 36 36 35 34 35 34 34 34 34 35 35 34 33 32 31 30 29 26 23 21 20 20 20 20 20 18 17 17 16 17 18 18 17 17 17
12 11 9 8 7 7 6 6 6 6 7 8 8 8 8 9 10 11 13 14 16 16 17 18 18 18 19 20 21 23 25 28 30 31 32 33 35 36 36 35 34 32 30 26 25 26 28 28 26 27 27 26 24 27 32 35 36 35 34 34 34 34 35 35 35 34 33 31 30 30 29 26 24 22 21 21 21 21 20 18 17 16 17 18 18 18 18 17
11 10 9 8 7 7 7 6 6 6 7 7 7 6 7 7 8 9 10 12 13 14 16 17 17 17 17 18 19 21 24 27 30 31 31 32 33 34 36 36 35 35 34 30 23 21 22 24 22 22 23 23 21 19 20 25 33 37 37 36 35 35 35 36 36 35 34 33 32 32 31 29 27 26 24 23 23 22 21 20 19 18 18 18 18 19 18 17
Wind_Direction
251 250 249 249 249 249 249 249 249 250 250 251 252 253 254 254 253 253 252 250 249 247 245 244 244 243 243 242 241 240 239 238 237 236 236 237 239 242 244 245 246 247 247 248 248 249 249 250 249 249 250 250 251 252 254 254 255 255 255 255 254 253 253 254 254 255 258 260 260 261 262 263 262 257 255 253 250 247 248 250 248 245 246 246 246 246 246 248
250 250 249 249 248 248 248 248 248 249 249 250 251 252 252 252 252 251 250 249 247 246 244 243 242 242 242 241 240 239 238 237 235 235 235 236 239 241 243 244 245 245 246 246 247 247 247 248 248 248 248 250 251 252 253 254 254 255 255 255 254 254 255 255 256 257 259 260 261 261 261 262 262 258 254 251 248 247 246 249 249 245 245 246 246 246 248 252
250 249 248 248 247 247 247 247 247 248 248 249 250 250 250 249 249 248 248 246 246 245 243 242 242 242 241 241 240 239 238 237 236 234 234 236 239 241 242 243 244 245 245 245 246 246 246 247 247 248 248 249 250 251 253 254 255 255 256 256 257 257 257 258 258 258 259 261 261 261 261 260 261 258 253 249 247 246 245 247 249 249 248 247 250 252 253 258
249 248 248 247 247 246 246 246 246 246 247 247 248 249 248 248 246 245 246 246 244 243 243 242 241 241 242 242 241 240 239 238 237 236 235 236 239 241 242 243 243 244 244 244 245 246 247 247 248 249 249 250 250 251 252 254 256 257 258 259 260 260 260 261 260 260 260 261 261 261 260 259 259 256 251 248 244 242 243 245 248 250 249 248 254 257 259 263
248 248 247 246 245 245 245 245 245 245 245 246 246 247 247 247 246 243 242 244 245 243 242 241 240 241 242 243 243 242 240 239 238 237 236 236 238 241 241 242 243 243 244 244 245 246 247 248 249 250 250 250 250 251 253 254 257 260 261 262 264 263 262 262 260 259 259 260 261 261 259 257 257 254 249 246 244 243 245 246 247 249 249 250 255 257 260 262
247 247 246 246 245 244 243 243 243 244 244 244 244 245 246 247 247 244 241 241 243 244 243 241 240 240 241 242 243 243 242 242 240 238 237 236 238 240 241 242 242 243 244 244 245 246 247 248 249 250 250 251 251 253 254 256 258 261 263 263 264 263 262 261 260 259 257 259 261 260 259 256 254 251 248 245 245 246 245 246 245 246 246 248 253 255 258 261
246 246 246 245 245 244 243 242 242 243 243 243 242 243 243 244 244 244 242 241 242 244 244 244 242 241 240 240 241 242 242 242 241 240 239 238 238 240 241 242 242 243 244 245 246 246 248 248 249 250 250 251 252 254 255 258 259 260 261 262 262 262 262 262 262 260 257 258 259 258 256 254 252 249 247 246 246 246 244 244 244 244 244 245 250 253 257 260
246 246 245 245 245 244 243 242 242 243 243 242 242 241 242 242 242 243 243 242 242 243 245 246 245 244 242 242 241 242 242 242 242 242 241 240 240 241 241 242 243 244 245 245 246 246 248 249 250 251 252 253 254 256 257 258 258 258 259 260 261 262 262 262 261 259 256 255 255 254 253 252 251 248 246 246 246 245 244 245 244 244 245 246 249 252 257 260
246 246 246 245 245 244 243 242 242 242 243 242 242 242 241 241 242 243 244 244 244 243 244 246 247 247 246 246 245 244 243 242 242 241 242 241 241 242 243 244 243 244 245 246 247 247 249 250 251 253 254 255 254 255 256 256 257 257 259 261 262 261 260 258 256 255 253 252 252 250 250 250 249 246 246 245 244 245 244 243 243 244 245 247 249 252 256 259
247 246 245 245 245 244 243 242 242 242 242 243 243 243 242 242 241 242 243 245 246 246 245 245 246 246 247 247 247 246 244 243 243 242 243 242 243 243 244 245 245 245 246 248 249 250 251 252 253 253 253 253 252 253 253 254 255 257 260 262 262 261 258 254 251 251 248 246 247 248 248 249 248 245 245 246 243 242 242 242 242 244 245 247 249 252 256 259
246 246 245 245 245 245 245 244 243 243 243 243 243 243 244 243 242 242 243 244 245 246 246 245 245 245 245 246 246 246 245 245 244 244 244 244 244 244 245 245 246 247 249 250 251 252 253 254 254 255 255 255 254 254 254 254 256 258 261 262 262 261 257 251 248 249 244 241 243 245 246 247 247 245 245 245 243 241 240 240 240 242 245 247 250 254 257 261
245 245 245 244 245 246 246 246 245 244 244 245 245 245 245 245 244 243 243 244 246 246 247 247 247 246 246 245 245 246 246 245 246 245 245 245 245 245 245 246 247 249 250 252 253 253 254 255 256 258 259 258 258 257 257 257 258 259 261 261 261 260 257 251 246 246 243 240 242 242 243 245 245 244 244 243 242 242 241 239 240 242 245 248 252 256 259 264
243 243 243 243 244 245 247 247 246 246 246 247 247 248 248 248 248 246 246 247 248 248 249 249 249 248 248 247 246 246 246 246 246 245 245 245 245 246 246 247 247 249 250 252 254 255 256 257 258 260 261 261 261 261 260 261 260 261 261 259 258 257 258 255 247 244 241 241 243 240 238 239 242 243 243 243 241 242 242 241 242 243 245 248 252 257 260 266
242 241 242 242 243 245 247 248 248 247 248 249 251 252 252 252 252 252 251 251 251 252 252 251 250 249 248 247 245 246 246 246 247 247 247 247 247 247 247 248 249 249 251 251 252 253 254 255 256 258 259 261 263 263 262 261 261 261 259 258 255 252 258 260 248 241 239 240 242 239 233 231 239 243 242 243 243 242 243 243 244 245 246 248 250 255 260 263
241 240 240 241 242 244 247 249 250 250 251 252 254 255 255 256 256 256 256 255 254 254 254 253 252 250 248 247 244 244 246 247 247 247 248 248 248 249 249 250 251 251 250 250 251 251 252 254 254 256 258 260 262 263 263 262 261 260 257 257 254 250 258 258 246 240 237 238 239 238 233 228 238 245 242 242 243 242 242 243 244 246 246 248 250 252 257 261
239 238 238 238 240 243 247 250 252 253 254 256 257 258 258 258 258 258 258 258 256 254 253 252 251 250 249 248 245 243 244 246 246 246 248 249 250 251 251 251 251 251 250 249 250 251 252 253 254 255 257 259 261 263 264 264 262 261 258 256 251 247 253 253 247 244 238 236 235 235 232 228 236 243 240 240 242 241 241 242 243 246 247 248 250 251 255 261
238 238 237 237 239 241 246 250 253 255 257 258 260 260 261 260 260 259 259 259 257 255 253 251 250 249 249 248 247 243 241 244 247 247 248 250 251 251 251 250 250 249 249 248 248 249 250 251 252 253 254 256 258 260 261 262 262 262 259 255 249 244 245 246 247 245 238 235 234 234 233 231 236 242 241 238 239 240 240 241 241 244 247 249 251 253 256 262
238 237 237 237 239 241 245 249 253 255 258 259 261 261 261 261 260 259 259 258 257 255 252 249 248 247 246 247 248 247 244 244 247 248 249 249 251 251 251 251 250 250 249 248 247 248 249 249 250 251 252 254 255 257 257 259 262 262 257 252 248 242 239 240 244 243 238 237 235 235 235 234 236 241 242 239 238 238 239 240 241 242 247 249 252 255 258 262
237 237 237 238 239 241 245 249 253 256 258 260 261 261 261 259 258 257 257 257 256 253 250 248 247 247 247 247 248 250 249 247 247 249 250 250 250 251 252 251 251 251 250 248 248 249 249 249 249 251 253 254 254 255 255 258 261 260 257 250 244 239 235 236 239 240 239 238 237 237 237 235 234 239 243 240 239 239 239 240 241 243 247 251 253 256 259 261
236 236 237 238 239 242 246 250 254 257 259 261 262 261 259 257 256 255 254 254 253 251 249 246 245 246 247 248 248 250 251 250 248 247 248 250 251 251 251 252 252 252 251 250 249 249 248 248 250 251 251 250 250 252 255 260 260 258 255 249 242 237 236 236 234 237 239 238 239 238 239 239 235 239 243 241 239 241 240 241 242 244 248 251 254 256 258 259
235 236 237 238 240 243 247 251 256 259 261 263 262 261 258 255 254 252 250 250 249 248 246 243 242 243 244 246 246 246 246 246 245 244 245 247 249 249 250 251 252 252 251 251 249 247 247 248 249 248 248 248 248 251 256 259 259 256 253 248 242 238 238 237 233 235 238 238 240 240 241 241 237 239 244 242 240 242 242 242 242 243 245 249 252 254 256 258
237 237 238 240 242 245 249 253 257 260 262 263 262 260 257 255 252 250 247 246 246 244 242 240 238 239 240 239 240 241 241 242 243 243 242 243 246 247 249 249 250 250 250 250 248 247 248 247 245 245 245 246 247 251 255 256 256 253 250 246 241 238 238 236 233 235 238 237 237 240 242 243 240 241 245 246 242 242 243 243 242 242 243 245 248 249 251 254
238 240 241 243 245 247 251 255 258 260 261 261 260 259 256 253 251 249 244 243 243 241 239 238 235 235 237 237 238 240 241 241 241 241 241 241 243 245 246 246 247 248 248 248 247 247 247 245 244 244 244 245 247 250 252 253 252 248 246 242 238 238 237 235 235 236 238 239 237 240 244 245 244 245 247 248 245 243 242 242 241 239 240 241 242 244 247 251
239 241 243 245 247 249 252 255 257 258 258 258 257 256 254 251 249 246 242 241 243 239 234 235 235 234 236 237 238 239 237 236 238 238 238 239 241 242 243 243 244 246 246 246 246 245 245 244 244 244 243 245 247 249 250 248 247 245 241 237 236 239 236 234 237 236 237 240 240 242 245 246 248 248 249 249 246 243 241 240 239 237 236 236 237 240 242 246
239 241 243 245 247 249 252 253 254 255 255 255 254 253 251 249 246 244 240 237 242 242 234 230 233 234 234 234 235 237 236 233 235 236 235 235 237 237 239 239 242 244 244 244 245 244 244 244 243 243 245 246 247 247 246 244 242 242 240 236 236 238 235 233 236 237 237 240 242 244 246 249 249 246 247 248 245 241 239 237 236 235 234 234 235 235 237 240
239 240 243 245 247 249 251 252 252 252 252 251 251 250 249 247 244 241 238 236 240 243 238 230 229 231 233 233 234 235 235 232 231 234 235 234 235 237 238 239 239 241 242 243 244 244 244 243 242 245 246 247 248 247 244 242 242 241 239 237 236 236 236 234 234 236 237 240 243 244 246 249 250 247 244 245 243 239 238 236 234 233 234 235 235 233 233 236
238 240 242 244 246 248 249 250 250 250 249 248 248 247 247 246 243 239 236 235 238 241 240 235 229 228 231 234 235 235 235 232 229 232 234 233 236 238 239 240 239 240 243 244 244 244 243 241 241 244 245 246 247 245 241 239 238 238 235 234 234 235 236 236 235 233 235 241 245 246 245 246 250 253 249 244 242 240 237 234 232 234 234 235 236 233 232 232
237 239 241 242 244 245 246 247 248 247 246 245 245 245 245 244 242 239 234 233 236 239 239 238 234 229 228 231 234 235 235 233 230 231 231 232 234 235 236 237 236 237 240 241 241 239 236 236 238 239 240 241 241 238 236 235 233 232 231 230 233 235 237 239 237 234 235 240 246 248 247 245 245 252 254 247 242 241 237 232 232 236 235 233 234 232 229 228
236 237 238 239 241 242 242 242 244 244 244 243 243 243 243 242 240 238 234 232 234 237 238 238 236 232 229 229 231 234 235 234 233 231 230 230 232 234 236 236 234 235 237 237 237 236 232 234 237 237 239 239 235 232 233 231 228 227 228 229 233 237 239 241 238 237 238 238 243 250 250 246 244 249 253 244 237 240 240 235 234 237 235 232 231 229 225 224
234 235 235 236 237 238 238 238 240 242 242 242 242 242 242 241 239 236 234 233 233 235 237 237 236 234 231 229 230 232 233 233 232 230 230 229 229 231 232 232 233 235 236 237 238 238 234 235 239 240 242 243 237 235 235 230 224 222 225 228 233 237 239 243 241 240 243 241 241 247 249 248 246 250 255 249 240 241 242 239 236 236 234 229 227 225 224 223
231 232 232 233 234 235 236 236 237 240 241 242 242 242 241 240 238 235 233 233 233 233 233 234 234 233 232 230 229 230 231 231 230 230 230 229 228 228 229 231 233 235 238 239 240 239 235 236 240 242 244 243 240 238 235 228 221 218 221 225 233 238 240 243 244 243 245 247 245 244 246 247 245 247 254 255 248 243 242 239 237 236 231 226 224 222 220 219
228 229 230 231 233 234 236 236 237 238 240 241 241 240 240 239 237 235 232 231 232 232 231 233 234 233 232 230 228 228 229 229 228 228 228 227 226 227 229 232 235 237 241 243 242 240 239 238 240 242 242 241 238 235 230 224 218 217 220 224 231 238 239 240 245 247 244 246 248 246 244 247 246 247 253 255 250 243 238 238 235 231 225 219 216 214 212 211
225 226 228 230 232 234 235 236 236 237 238 239 239 238 238 237 236 234 230 229 231 231 230 232 233 232 231 230 228 227 227 228 227 226 226 225 224 223 225 229 231 233 238 241 240 237 237 236 236 238 238 238 236 233 229 224 219 220 223 225 229 236 239 239 245 251 248 246 248 245 244 248 249 249 250 251 249 238 231 232 227 222 216 205 204 204 205 206
224 225 227 229 231 233 234 235 235 235 236 236 237 236 236 236 233 230 228 228 230 231 229 230 231 231 229 228 227 225 226 227 227 226 226 225 224 223 225 227 228 229 230 233 233 230 231 232 233 235 235 234 234 229 226 223 220 222 224 225 227 230 237 239 241 247 248 247 246 238 239 247 252 252 246 244 244 230 219 221 217 215 209 196 196 198 202 207
222 225 227 229 230 231 233 233 233 233 233 234 235 235 235 233 230 227 228 228 229 230 229 227 228 228 227 226 226 225 225 226 228 227 226 226 226 225 227 229 229 230 231 231 231 229 230 232 232 233 231 228 224 218 219 221 224 227 227 228 229 230 238 241 240 244 247 251 250 240 238 245 251 254 249 242 241 228 213 211 210 211 206 200 201 202 207 212
222 224 226 226 226 227 229 230 231 231 231 232 233 234 233 232 229 228 229 229 229 230 228 226 226 225 224 223 224 224 223 224 227 227 226 226 227 225 226 227 228 231 233 233 233 233 233 234 234 230 227 224 216 212 215 218 222 228 231 234 234 234 240 242 243 247 249 254 257 251 249 249 246 247 245 240 238 228 214 208 207 206 202 204 210 212 215 216
221 222 222 222 222 224 226 228 230 230 230 231 233 233 233 232 231 229 229 229 228 229 228 226 225 224 223 221 222 224 222 222 225 226 225 227 229 228 227 228 228 229 231 232 234 233 231 234 236 230 225 223 216 213 218 220 220 224 229 232 231 232 238 240 242 247 247 250 255 255 254 255 250 242 235 233 234 230 218 208 204 204 202 206 211 215 219 219
217 217 218 219 221 223 225 228 230 231 231 232 233 234 233 233 231 229 228 228 228 229 228 228 227 225 225 223 221 222 223 222 224 224 224 225 229 230 229 230 230 230 231 231 232 232 229 231 235 231 225 223 219 216 221 225 223 224 228 228 223 227 233 236 238 243 247 248 253 257 255 254 253 242 221 221 229 232 222 206 199 203 205 206 211 213 216 218
213 214 216 218 220 223 225 227 230 231 232 233 233 233 233 231 230 228 227 226 227 229 229 229 229 227 227 226 222 221 222 221 222 224 224 222 225 228 228 229 230 232 233 232 232 232 229 227 230 231 225 223 222 219 222 228 228 227 229 228 225 227 230 233 235 238 243 245 249 255 253 249 251 242 221 220 228 231 225 208 197 199 204 206 208 211 215 219
211 212 214 217 219 222 224 226 228 229 231 232 233 234 233 231 229 228 227 226 226 228 229 229 229 229 229 230 226 222 222 221 220 223 224 222 223 226 226 227 229 231 233 233 233 230 227 224 224 226 224 222 224 222 221 226 228 228 230 230 230 231 231 235 238 237 238 239 241 249 251 247 244 237 226 224 228 228 224 215 204 202 207 208 206 207 215 222
210 211 212 215 216 219 222 225 227 228 230 232 233 234 234 233 232 230 230 229 228 229 230 229 230 230 230 232 231 225 222 223 222 224 225 223 224 225 224 225 227 229 231 232 230 227 225 222 221 223 223 221 224 225 223 224 224 225 227 227 229 232 232 234 239 241 242 240 239 241 245 245 237 227 223 223 228 231 227 220 211 207 214 218 215 215 219 225
208 208 209 212 214 217 221 223 226 229 230 232 233 233 235 235 233 232 232 231 230 230 231 231 231 232 232 233 234 231 226 223 223 227 229 227 226 225 223 223 224 225 228 229 229 226 223 221 221 224 222 220 224 225 225 226 225 224 224 223 224 228 231 231 232 238 242 243 243 243 245 245 235 224 223 222 228 235 234 225 214 209 216 225 230 233 234 236
205 205 207 210 213 216 220 222 225 228 230 231 232 232 233 234 231 231 231 231 230 230 230 231 231 233 234 234 235 236 232 227 223 226 230 230 228 227 225 223 224 225 227 228 229 228 225 221 221 224 226 225 226 226 227 228 226 226 226 225 225 228 231 232 231 235 241 242 241 243 244 243 233 226 227 225 228 235 238 232 221 215 218 224 231 237 240 242
202 204 205 208 212 215 218 220 223 226 228 229 231 232 233 234 232 231 232 232 232 231 231 232 231 232 234 235 236 236 235 233 228 226 228 229 228 228 228 227 227 227 227 228 229 229 229 225 222 224 228 230 230 229 229 229 229 229 230 229 229 230 231 235 237 240 244 245 243 241 241 238 230 225 226 227 229 232 236 236 231 227 227 230 234 238 241 245
200 203 203 206 212 214 215 216 219 224 228 230 232 233 233 235 234 232 232 233 234 235 235 235 234 233 234 235 236 237 236 236 234 232 232 231 228 227 228 229 229 228 229 231 231 230 230 227 223 223 228 232 234 234 232 232 232 233 232 230 230 231 231 233 238 240 241 245 246 243 242 240 232 227 227 227 229 230 230 232 232 233 234 235 237 240 244 249
197 200 202 206 210 212 211 212 216 221 227 229 230 232 233 235 235 234 234 235 237 239 239 238 237 236 236 235 235 236 237 236 236 237 237 235 232 230 228 227 228 228 230 233 233 233 233 229 223 223 227 231 234 236 234 233 234 234 233 231 230 231 232 233 236 238 238 242 245 244 246 246 239 232 230 225 224 226 229 230 229 230 233 234 236 241 244 248
194 198 201 203 206 208 208 211 215 219 224 226 226 230 233 235 238 239 240 239 239 238 238 238 238 239 240 240 239 237 236 236 236 237 237 237 237 234 230 229 229 229 231 232 232 233 234 232 229 228 229 230 233 234 234 233 233 233 233 232 231 231 233 235 237 238 239 242 245 244 245 247 242 237 236 232 225 221 223 229 228 227 230 232 234 239 241 243
193 196 198 200 202 206 208 211 215 219 223 227 229 233 237 241 245 246 245 242 238 235 234 235 239 243 247 249 247 243 238 235 234 235 234 234 236 235 232 228 227 230 233 233 233 232 232 234 236 236 234 232 232 233 233 233 234 234 233 232 231 231 233 236 238 239 241 244 247 246 245 245 242 240 241 243 240 229 221 224 227 227 229 232 235 240 242 242
189 191 193 197 201 205 210 213 218 222 226 233 238 242 246 249 252 250 246 242 238 236 236 239 245 252 256 256 253 248 242 236 233 234 234 233 233 234 232 226 223 226 230 233 235 235 234 235 237 241 239 234 231 230 230 231 232 233 234 232 231 231 232 234 236 239 240 242 245 247 246 244 243 241 241 244 247 241 228 220 223 226 228 232 236 240 242 241
185 187 188 194 199 204 209 215 222 227 233 241 245 248 249 251 253 250 245 243 242 243 244 248 254 260 263 262 256 250 246 240 235 234 233 231 231 231 231 226 223 226 229 232 235 234 234 236 239 242 241 235 231 230 228 228 230 232 233 232 231 231 232 233 235 237 239 240 242 245 245 244 242 241 240 242 246 248 240 228 223 223 227 231 234 237 240 241
181 184 188 193 197 201 209 216 224 232 240 244 246 248 250 253 254 250 247 246 248 250 252 255 260 265 266 264 258 253 249 243 237 233 230 228 228 229 230 227 224 225 225 228 233 233 233 235 235 234 233 230 231 231 229 228 229 230 231 231 231 231 232 233 234 235 237 238 240 242 243 243 242 241 240 241 243 246 245 240 233 227 228 230 232 235 238 241
180 182 187 192 195 201 208 214 225 235 240 241 243 248 254 256 256 252 252 253 253 256 259 260 263 265 265 263 260 254 248 242 237 231 227 225 224 225 228 228 227 227 223 221 226 229 225 221 215 214 218 221 225 232 233 230 228 228 229 231 231 232 232 233 233 234 235 236 238 239 241 242 243 243 242 241 242 242 243 242 238 234 232 232 233 235 239 243
Height
5743 5744 5745 5746 5747 5748 5749 5750 5751 5753 5754 5755 5757 5758 5760 5761 5763 5764 5766 5767 5768 5769 5770 5772 5773 5774 5775 5777 5778 5779 5780 5782 5783 5785 5786 5788 5789 5791 5792 5793 5795 5796 5797 5798 5799 5800 5801 5802 5803 5804 5805 5805 5806 5807 5808 5808 5809 5809 5810 5810 5810 5810 5810 5811 5811 5811 5811 5812 5814 5814 5815 5815 5816 5817 5818 5818 5819 5820 5821 5821 5822 5823 5822 5822 5822 5822 5823 5824
5740 5741 5742 5742 5743 5744 5745 5747 5748 5749 5750 5752 5753 5755 5756 5758 5759 5761 5762 5763 5765 5766 5767 5768 5770 5771 5772 5773 5774 5776 5777 5778 5780 5782 5783 5785 5786 5787 5789 5791 5792 5793 5794 5795 5796 5797 5798 5799 5800 5801 5802 5803 5803 5804 5804 5805 5805 5806 5806 5807 5807 5807 5807 5808 5808 5808 5809 5809 5811 5812 5812 5813 5813 5814 5815 5816 5817 5818 5819 5819 5819 5819 5818 5818 5819 5820 5821 5823
5736 5737 5738 5739 5740 5741 5742 5743 5744 5745 5747 5748 5750 5751 5753 5754 5756 5757 5759 5760 5761 5763 5764 5765 5766 5768 5769 5770 5771 5773 5774 5776 5777 5779 5780 5782 5783 5784 5786 5788 5789 5790 5791 5792 5794 5795 5795 5796 5797 5798 5799 5800 5800 5801 5801 5802 5802 5803 5804 5804 5804 5804 5805 5805 5805 5806 5806 5807 5808 5809 5810 5810 5810 5811 5812 5813 5815 5816 5816 5817 5815 5814 5815 5816 5817 5819 5821 5823
5732 5734 5735 5736 5737 5738 5739 5739 5741 5742 5743 5745 5746 5748 5749 5751 5752 5754 5756 5757 5758 5760 5761 5762 5763 5765 5766 5767 5768 5770 5771 5773 5774 5776 5778 5779 5780 5782 5783 5785 5786 5787 5788 5790 5791 5792 5792 5793 5794 5795 5796 5797 5797 5798 5798 5799 5799 5800 5801 5801 5801 5802 5802 5802 5803 5803 5803 5804 5805 5806 5807 5807 5808 5808 5810 5811 5812 5812 5812 5813 5813 5813 5814 5815 5817 5819 5821 5822
5729 5730 5731 5732 5733 5734 5735 5736 5737 5739 5740 5741 5743 5744 5746 5747 5749 5751 5752 5754 5755 5757 5758 5759 5760 5761 5763 5764 5765 5767 5768 5770 5772 5773 5775 5776 5777 5779 5781 5782 5783 5784 5785 5787 5788 5789 5789 5790 5791 5792 5793 5794 5794 5795 5796 5797 5797 5798 5798 5798 5799 5799 5799 5799 5800 5800 5800 5801 5802 5803 5804 5805 5805 5806 5807 5808 5809 5809 5809 5810 5811 5812 5814 5815 5816 5818 5819 5819
5726 5727 5728 5729 5730 5731 5732 5733 5734 5736 5737 5738 5739 5741 5742 5744 5745 5747 5749 5751 5752 5754 5755 5756 5757 5758 5760 5761 5763 5764 5765 5767 5769 5770 5772 5773 5774 5776 5778 5779 5780 5781 5782 5784 5785 5786 5786 5787 5788 5789 5790 5791 5792 5793 5793 5794 5795 5795 5796 5796 5796 5796 5796 5796 5797 5797 5798 5799 5800 5800 5801 5802 5802 5802 5804 5805 5805 5806 5807 5808 5809 5810 5812 5813 5815 5816 5816 5816
5722 5724 5724 5725 5726 5727 5728 5730 5731 5732 5734 5735 5737 5738 5739 5741 5742 5744 5746 5748 5749 5751 5752 5753 5754 5755 5757 5758 5760 5761 5763 5764 5766 5767 5768 5770 5772 5773 5775 5776 5777 5778 5779 5781 5782 5783 5783 5784 5785 5786 5787 5788 5789 5790 5791 5791 5792 5793 5793 5793 5793 5793 5793 5793 5794 5795 5795 5796 5797 5797 5798 5799 5799 5800 5801 5802 5803 5804 5805 5806 5807 5808 5810 5811 5812 5813 5814 5814
5719 5720 5721 5722 5723 5724 5725 5726 5727 5729 5730 5732 5734 5735 5736 5738 5739 5741 5743 5745 5746 5747 5749 5750 5751 5753 5754 5755 5757 5758 5760 5762 5763 5764 5766 5767 5769 5770 5772 5773 5774 5775 5776 5778 5779 5780 5781 5782 5783 5784 5785 5786 5787 5788 5788 5789 5789 5789 5790 5790 5790 5790 5791 5791 5792 5793 5793 5794 5794 5795 5796 5796 5796 5797 5798 5800 5801 5802 5803 5804 5805 5807 5808 5809 5810 5811 5812 5811
5716 5717 5718 5718 5719 5721 5722 5723 5724 5725 5727 5729 5731 5732 5733 5735 5736 5738 5740 5741 5743 5744 5746 5747 5748 5750 5751 5752 5753 5755 5757 5759 5760 5761 5762 5764 5766 5767 5768 5770 5771 5772 5773 5774 5776 5777 5778 5779 5780 5782 5783 5784 5785 5785 5785 5785 5785 5786 5787 5787 5787 5787 5788 5788 5789 5790 5790 5791 5791 5792 5793 5793 5793 5795 5796 5797 5798 5799 5800 5801 5803 5805 5806 5807 5808 5809 5809 5809
5712 5713 5714 5715 5716 5718 5719 5720 5721 5722 5724 5726 5728 5729 5730 5732 5733 5735 5737 5738 5740 5741 5742 5744 5745 5747 5748 5749 5750 5752 5754 5755 5757 5758 5759 5761 5762 5764 5765 5767 5768 5769 5770 5772 5773 5774 5775 5777 5778 5779 5780 5781 5781 5782 5782 5782 5783 5783 5784 5784 5784 5784 5785 5786 5786 5787 5788 5789 5789 5790 5790 5790 5791 5792 5794 5795 5796 5797 5798 5799 5801 5802 5804 5805 5805 5806 5807 5807
5709 5710 5711 5712 5713 5715 5716 5717 5718 5719 5721 5723 5725 5726 5728 5729 5730 5732 5733 5735 5736 5738 5739 5740 5742 5743 5745 5746 5747 5749 5751 5752 5753 5755 5756 5758 5759 5761 5762 5764 5765 5766 5768 5769 5770 5772 5773 5774 5775 5776 5777 5778 5779 5779 5779 5780 5780 5781 5781 5781 5781 5782 5782 5783 5784 5784 5785 5786 5787 5787 5787 5787 5789 5790 5792 5792 5793 5794 5796 5797 5799 5800 5801 5803 5804 5804 5805 5805
5705 5706 5708 5709 5710 5711 5713 5714 5715 5717 5718 5720 5722 5723 5725 5726 5727 5729 5730 5732 5733 5735 5736 5737 5739 5740 5741 5743 5744 5746 5748 5749 5750 5752 5753 5754 5756 5758 5759 5761 5762 5764 5765 5766 5768 5769 5770 5771 5773 5773 5775 5775 5776 5777 5777 5777 5778 5778 5779 5779 5779 5779 5780 5780 5781 5782 5783 5783 5784 5784 5785 5786 5787 5788 5788 5789 5791 5792 5793 5795 5796 5798 5799 5801 5801 5802 5803 5803
5701 5703 5704 5705 5707 5708 5710 5711 5712 5714 5716 5717 5719 5720 5722 5723 5724 5726 5727 5729 5730 5732 5733 5734 5736 5737 5738 5739 5741 5743 5744 5746 5747 5749 5750 5751 5753 5754 5756 5758 5759 5761 5762 5763 5765 5766 5767 5768 5770 5771 5772 5773 5773 5774 5775 5775 5775 5776 5776 5776 5776 5777 5777 5778 5779 5780 5780 5781 5781 5782 5784 5786 5785 5784 5785 5786 5788 5790 5791 5793 5794 5796 5797 5798 5799 5800 5801 5801
5697 5699 5700 5702 5703 5705 5706 5708 5709 5711 5713 5715 5716 5717 5719 5720 5722 5723 5724 5726 5728 5729 5730 5731 5733 5734 5735 5736 5738 5740 5741 5743 5744 5745 5747 5748 5750 5751 5753 5754 5756 5758 5759 5761 5762 5763 5764 5765 5767 5768 5769 5770 5771 5772 5772 5772 5773 5773 5774 5774 5774 5775 5774 5776 5777 5777 5778 5778 5778 5779 5783 5785 5782 5780 5783 5785 5786 5788 5789 5791 5792 5794 5795 5796 5797 5798 5798 5799
5693 5695 5697 5698 5700 5702 5703 5704 5706 5708 5710 5711 5713 5714 5716 5717 5719 5720 5721 5723 5725 5726 5727 5729 5730 5731 5732 5732 5735 5737 5738 5739 5741 5742 5744 5745 5746 5748 5750 5751 5753 5755 5756 5757 5759 5760 5761 5763 5764 5765 5766 5767 5768 5768 5769 5769 5770 5770 5771 5771 5772 5773 5772 5773 5774 5775 5775 5775 5776 5777 5780 5783 5779 5778 5782 5783 5784 5786 5787 5789 5790 5792 5793 5794 5795 5796 5797 5797
5690 5691 5693 5695 5696 5698 5700 5701 5703 5704 5706 5708 5710 5711 5713 5714 5715 5717 5718 5720 5722 5723 5724 5726 5727 5728 5729 5729 5731 5734 5735 5736 5737 5739 5741 5742 5743 5745 5747 5749 5750 5752 5753 5754 5756 5757 5758 5759 5761 5762 5763 5764 5765 5765 5766 5766 5767 5768 5769 5769 5770 5770 5770 5771 5771 5772 5773 5773 5774 5775 5777 5779 5776 5776 5779 5780 5781 5783 5785 5787 5788 5789 5791 5792 5793 5795 5795 5796
5686 5687 5689 5691 5693 5695 5696 5698 5699 5701 5703 5704 5706 5708 5709 5711 5712 5713 5714 5716 5718 5719 5721 5722 5723 5725 5726 5726 5728 5731 5732 5733 5734 5736 5738 5739 5741 5742 5744 5746 5747 5749 5750 5751 5753 5754 5755 5756 5758 5759 5760 5761 5762 5762 5763 5764 5765 5765 5766 5767 5767 5768 5768 5768 5768 5769 5770 5771 5772 5773 5773 5775 5775 5774 5776 5778 5779 5781 5782 5784 5786 5787 5789 5790 5792 5793 5794 5794
5682 5684 5686 5688 5689 5691 5693 5694 5695 5697 5699 5700 5702 5704 5705 5707 5708 5709 5710 5712 5713 5715 5717 5718 5719 5721 5722 5723 5725 5727 5729 5731 5732 5733 5735 5736 5738 5739 5741 5743 5744 5746 5747 5748 5749 5751 5752 5753 5754 5755 5756 5758 5759 5759 5760 5761 5762 5763 5763 5764 5764 5765 5766 5765 5766 5766 5768 5769 5770 5771 5771 5773 5774 5773 5773 5775 5776 5778 5780 5781 5784 5785 5787 5788 5790 5791 5792 5792
5678 5680 5682 5684 5686 5687 5689 5690 5692 5693 5695 5697 5698 5700 5701 5703 5704 5705 5706 5707 5709 5710 5712 5714 5716 5717 5718 5720 5722 5723 5725 5728 5729 5730 5731 5733 5735 5736 5738 5739 5741 5743 5744 5745 5746 5748 5749 5750 5750 5752 5754 5755 5756 5756 5757 5758 5759 5760 5760 5761 5762 5762 5763 5763 5763 5764 5765 5767 5767 5768 5769 5770 5772 5771 5770 5772 5774 5776 5777 5779 5782 5784 5785 5787 5788 5789 5790 5790
5674 5676 5678 5680 5682 5684 5686 5687 5688 5690 5691 5693 5694 5696 5697 5699 5700 5701 5702 5703 5704 5706 5708 5711 5712 5714 5715 5717 5719 5720 5722 5724 5726 5727 5728 5730 5731 5733 5735 5736 5738 5740 5741 5742 5743 5744 5745 5746 5747 5750 5751 5751 5752 5753 5754 5755 5757 5757 5758 5758 5759 5760 5760 5760 5761 5762 5762 5764 5765 5766 5766 5768 5771 5769 5767 5769 5771 5773 5775 5777 5780 5782 5783 5784 5785 5787 5787 5788
5670 5673 5675 5677 5679 5681 5682 5683 5685 5686 5687 5689 5691 5692 5693 5695 5696 5697 5698 5699 5700 5702 5705 5707 5709 5710 5711 5713 5714 5716 5717 5719 5721 5724 5726 5727 5728 5729 5731 5733 5735 5736 5737 5738 5739 5741 5741 5743 5745 5747 5747 5748 5749 5750 5751 5752 5753 5754 5755 5755 5756 5757 5757 5758 5759 5759 5760 5761 5763 5763 5763 5764 5768 5767 5765 5767 5770 5771 5773 5775 5777 5780 5781 5782 5783 5784 5784 5784
5667 5669 5671 5673 5675 5677 5679 5680 5681 5682 5684 5685 5687 5688 5689 5691 5692 5694 5695 5696 5697 5699 5701 5703 5706 5707 5707 5708 5710 5711 5713 5715 5718 5721 5723 5724 5724 5726 5728 5730 5732 5733 5734 5734 5736 5737 5738 5740 5742 5742 5743 5744 5745 5747 5748 5749 5750 5751 5751 5752 5754 5754 5754 5755 5756 5756 5757 5759 5760 5760 5760 5761 5764 5764 5764 5766 5768 5769 5770 5772 5775 5777 5778 5780 5780 5780 5780 5781
5663 5666 5668 5670 5672 5674 5675 5677 5678 5679 5680 5681 5683 5684 5686 5687 5688 5690 5692 5693 5693 5695 5698 5700 5702 5703 5703 5705 5707 5708 5711 5714 5715 5717 5719 5720 5721 5723 5725 5727 5728 5729 5730 5731 5733 5734 5735 5737 5737 5738 5740 5741 5742 5744 5745 5746 5747 5748 5748 5749 5750 5750 5752 5753 5753 5753 5754 5756 5757 5757 5757 5759 5761 5762 5763 5764 5765 5767 5768 5770 5771 5773 5775 5777 5777 5777 5777 5778
5660 5662 5664 5666 5668 5670 5672 5673 5675 5675 5677 5678 5679 5681 5682 5684 5685 5687 5689 5690 5689 5691 5695 5697 5698 5699 5700 5702 5704 5706 5708 5710 5712 5714 5716 5717 5718 5720 5722 5723 5724 5725 5726 5728 5729 5731 5731 5733 5734 5735 5736 5738 5739 5740 5742 5743 5744 5744 5745 5746 5747 5748 5749 5750 5750 5751 5752 5753 5755 5755 5755 5757 5759 5760 5761 5761 5763 5765 5766 5767 5768 5770 5772 5773 5773 5774 5775 5775
5656 5659 5661 5663 5664 5666 5668 5670 5671 5672 5673 5674 5676 5677 5679 5680 5683 5684 5686 5687 5686 5687 5692 5694 5695 5696 5698 5699 5701 5702 5704 5707 5708 5710 5711 5713 5715 5716 5718 5719 5720 5721 5723 5725 5726 5727 5727 5729 5731 5732 5733 5735 5736 5737 5738 5739 5740 5741 5742 5744 5745 5746 5747 5747 5747 5748 5750 5751 5752 5752 5753 5756 5757 5757 5758 5758 5760 5762 5763 5764 5766 5767 5768 5769 5770 5771 5772 5773
5652 5655 5657 5659 5661 5663 5665 5666 5667 5668 5669 5671 5672 5674 5675 5677 5679 5681 5683 5684 5684 5684 5687 5690 5692 5693 5694 5696 5697 5699 5700 5703 5705 5706 5707 5709 5711 5712 5714 5715 5717 5718 5720 5721 5722 5723 5724 5727 5728 5729 5731 5732 5732 5734 5735 5736 5738 5738 5739 5741 5742 5743 5744 5744 5744 5746 5748 5749 5748 5750 5752 5754 5753 5754 5755 5755 5757 5758 5759 5761 5762 5763 5765 5766 5767 5769 5769 5770
5649 5652 5654 5655 5657 5659 5661 5662 5663 5664 5666 5667 5669 5670 5672 5674 5676 5678 5680 5681 5681 5680 5683 5686 5688 5690 5691 5692 5694 5695 5697 5699 5701 5702 5704 5706 5707 5709 5710 5712 5714 5715 5717 5718 5718 5720 5722 5724 5725 5726 5728 5728 5729 5730 5732 5734 5735 5735 5736 5737 5739 5740 5741 5742 5742 5744 5746 5746 5746 5748 5750 5751 5751 5751 5751 5752 5754 5755 5756 5758 5759 5760 5762 5763 5764 5765 5767 5768
5646 5648 5650 5652 5654 5655 5657 5659 5660 5661 5662 5664 5665 5667 5669 5671 5673 5675 5677 5678 5677 5678 5679 5682 5684 5687 5688 5689 5690 5692 5693 5696 5697 5699 5701 5703 5704 5705 5707 5708 5711 5712 5713 5714 5715 5717 5719 5720 5721 5723 5724 5724 5726 5728 5729 5730 5731 5732 5733 5735 5736 5738 5739 5740 5741 5742 5743 5744 5745 5745 5747 5749 5750 5749 5748 5749 5751 5751 5752 5754 5755 5757 5758 5759 5761 5762 5764 5765
5643 5645 5647 5649 5650 5652 5654 5656 5656 5657 5659 5661 5662 5664 5666 5668 5670 5672 5673 5674 5675 5675 5676 5678 5680 5682 5685 5686 5687 5689 5690 5692 5694 5696 5698 5699 5701 5702 5704 5706 5708 5708 5709 5710 5711 5713 5715 5716 5718 5719 5719 5721 5724 5725 5725 5726 5727 5729 5730 5733 5734 5736 5737 5738 5739 5740 5740 5742 5743 5742 5743 5746 5748 5747 5745 5745 5747 5748 5750 5751 5752 5754 5755 5756 5758 5759 5760 5762
5640 5642 5644 5646 5647 5649 5651 5652 5653 5655 5656 5658 5659 5661 5663 5665 5666 5668 5670 5671 5672 5673 5674 5675 5676 5678 5681 5683 5684 5686 5687 5689 5691 5693 5694 5696 5698 5699 5701 5702 5703 5704 5705 5707 5707 5709 5712 5714 5714 5716 5717 5720 5721 5721 5722 5723 5725 5727 5729 5731 5733 5734 5735 5735 5737 5737 5737 5740 5741 5740 5740 5743 5745 5744 5742 5742 5743 5745 5747 5749 5749 5751 5751 5753 5754 5756 5757 5759
5637 5639 5641 5643 5645 5646 5648 5650 5651 5652 5653 5655 5657 5658 5660 5661 5663 5665 5666 5668 5670 5670 5670 5671 5673 5675 5677 5679 5681 5683 5684 5686 5688 5689 5691 5693 5694 5696 5697 5698 5699 5701 5702 5703 5705 5708 5710 5711 5711 5714 5716 5717 5718 5719 5719 5721 5723 5725 5728 5729 5731 5732 5732 5733 5734 5734 5736 5737 5737 5737 5738 5740 5742 5741 5739 5740 5742 5743 5745 5746 5747 5747 5748 5750 5751 5753 5755 5757
5634 5636 5638 5640 5642 5643 5645 5647 5648 5649 5651 5652 5654 5655 5657 5658 5659 5661 5663 5665 5665 5666 5667 5669 5670 5672 5674 5676 5678 5680 5681 5683 5685 5686 5688 5690 5691 5693 5694 5695 5697 5699 5700 5702 5704 5706 5708 5708 5710 5711 5713 5714 5715 5716 5717 5719 5721 5724 5726 5727 5729 5729 5729 5731 5731 5731 5734 5735 5733 5735 5736 5736 5737 5737 5737 5739 5741 5742 5743 5743 5744 5745 5746 5748 5749 5751 5753 5755
5632 5634 5636 5638 5639 5641 5642 5644 5645 5647 5648 5649 5650 5652 5653 5655 5656 5658 5660 5661 5661 5663 5665 5666 5667 5669 5671 5673 5675 5677 5678 5680 5682 5683 5685 5686 5688 5690 5691 5692 5694 5696 5698 5700 5702 5704 5705 5706 5707 5708 5710 5712 5713 5714 5716 5718 5721 5722 5724 5725 5727 5727 5726 5728 5729 5730 5732 5732 5731 5732 5733 5733 5734 5734 5736 5738 5739 5740 5741 5741 5742 5743 5745 5747 5748 5750 5751 5753
5630 5632 5634 5636 5637 5638 5640 5641 5642 5644 5645 5646 5647 5649 5650 5652 5654 5655 5656 5657 5658 5660 5662 5663 5665 5667 5669 5670 5672 5674 5675 5676 5678 5680 5682 5683 5684 5686 5687 5689 5691 5693 5695 5697 5699 5700 5701 5703 5704 5705 5708 5709 5711 5713 5715 5717 5718 5719 5720 5722 5723 5724 5724 5726 5728 5728 5729 5729 5728 5730 5730 5732 5732 5731 5734 5736 5737 5739 5740 5740 5742 5743 5745 5746 5747 5749 5750 5752
5628 5630 5632 5633 5635 5636 5637 5638 5640 5641 5642 5643 5645 5646 5647 5649 5650 5651 5652 5654 5655 5657 5659 5661 5662 5664 5666 5667 5669 5671 5672 5674 5675 5677 5679 5680 5681 5683 5685 5686 5688 5690 5692 5694 5696 5698 5699 5701 5702 5704 5706 5707 5709 5711 5712 5714 5715 5716 5717 5718 5720 5722 5723 5724 5725 5726 5727 5727 5726 5727 5729 5730 5730 5729 5731 5733 5735 5737 5738 5739 5741 5742 5744 5746 5747 5749 5750 5752
5626 5628 5629 5631 5632 5633 5634 5635 5637 5638 5640 5641 5642 5643 5645 5646 5647 5648 5649 5651 5653 5654 5656 5658 5659 5661 5662 5664 5666 5667 5669 5671 5673 5674 5676 5677 5678 5680 5682 5683 5685 5688 5690 5692 5694 5696 5697 5698 5699 5701 5703 5704 5706 5707 5708 5710 5712 5713 5714 5716 5719 5721 5721 5721 5722 5723 5725 5725 5725 5726 5727 5728 5727 5727 5728 5730 5733 5735 5737 5738 5740 5741 5743 5745 5746 5748 5750 5752
5624 5626 5627 5628 5629 5631 5632 5633 5634 5636 5637 5638 5640 5641 5642 5643 5644 5646 5647 5648 5650 5651 5653 5654 5656 5658 5659 5661 5663 5664 5666 5669 5670 5672 5674 5675 5676 5677 5679 5680 5682 5685 5687 5690 5692 5693 5695 5696 5696 5699 5701 5701 5703 5704 5705 5707 5709 5710 5712 5714 5717 5718 5718 5719 5720 5721 5722 5723 5723 5724 5725 5725 5724 5724 5726 5728 5730 5733 5735 5736 5738 5740 5742 5743 5745 5747 5749 5750
5622 5623 5625 5626 5627 5628 5629 5631 5632 5633 5634 5636 5637 5638 5639 5641 5642 5644 5645 5646 5647 5648 5650 5651 5653 5655 5656 5658 5660 5661 5663 5666 5668 5669 5671 5672 5674 5675 5676 5678 5680 5682 5684 5687 5688 5690 5692 5693 5694 5696 5698 5699 5700 5702 5703 5704 5706 5708 5710 5712 5714 5715 5715 5717 5718 5719 5720 5721 5721 5722 5723 5723 5721 5721 5724 5726 5728 5730 5732 5734 5736 5737 5739 5741 5743 5745 5747 5748
5620 5621 5622 5623 5625 5626 5627 5628 5630 5631 5632 5633 5634 5636 5637 5638 5640 5641 5642 5643 5644 5645 5647 5648 5650 5652 5653 5654 5657 5658 5660 5662 5665 5667 5668 5670 5671 5672 5673 5675 5677 5679 5681 5683 5685 5687 5689 5691 5691 5693 5695 5697 5698 5699 5701 5702 5704 5706 5708 5709 5711 5712 5713 5715 5715 5717 5718 5719 5720 5720 5721 5720 5719 5720 5723 5725 5726 5727 5729 5731 5733 5734 5736 5738 5740 5742 5744 5746
5617 5619 5620 5621 5623 5624 5625 5627 5628 5629 5630 5631 5632 5633 5635 5636 5637 5638 5640 5641 5642 5643 5644 5646 5647 5648 5650 5651 5653 5655 5657 5659 5661 5664 5665 5667 5668 5670 5671 5673 5674 5676 5678 5680 5682 5684 5686 5688 5689 5690 5692 5694 5695 5697 5699 5700 5701 5704 5705 5707 5708 5709 5711 5712 5713 5715 5716 5717 5718 5718 5718 5717 5718 5719 5721 5723 5723 5725 5727 5728 5730 5731 5732 5734 5736 5738 5740 5742
5615 5617 5618 5620 5621 5622 5623 5625 5626 5627 5628 5629 5630 5631 5632 5633 5635 5636 5637 5638 5640 5641 5642 5643 5644 5645 5647 5648 5650 5652 5654 5656 5658 5661 5662 5663 5665 5667 5668 5670 5672 5674 5676 5677 5679 5681 5683 5685 5687 5688 5690 5692 5693 5694 5696 5697 5698 5700 5702 5705 5706 5708 5709 5710 5711 5712 5713 5714 5715 5716 5715 5715 5716 5718 5719 5720 5722 5723 5725 5726 5728 5729 5730 5732 5734 5735 5737 5739
5614 5615 5617 5618 5619 5621 5622 5623 5624 5625 5626 5627 5628 5629 5630 5631 5632 5634 5635 5636 5637 5638 5639 5640 5641 5643 5644 5645 5646 5649 5651 5653 5656 5657 5658 5660 5661 5663 5665 5667 5669 5671 5673 5674 5677 5679 5681 5683 5685 5686 5688 5689 5689 5690 5692 5694 5696 5698 5699 5701 5703 5704 5705 5707 5709 5710 5710 5711 5712 5713 5713 5713 5715 5716 5717 5719 5720 5722 5724 5725 5727 5728 5729 5731 5732 5733 5735 5737
5612 5614 5615 5617 5618 5619 5620 5622 5623 5623 5624 5625 5626 5627 5628 5629 5630 5631 5632 5633 5634 5636 5637 5638 5639 5640 5641 5642 5644 5645 5648 5650 5653 5654 5655 5656 5657 5659 5662 5665 5667 5668 5670 5672 5674 5676 5678 5680 5682 5683 5685 5686 5686 5688 5689 5691 5693 5695 5696 5698 5700 5701 5703 5705 5706 5707 5707 5708 5710 5710 5710 5711 5714 5715 5716 5717 5719 5720 5722 5723 5725 5726 5727 5728 5730 5731 5733 5733
5611 5612 5614 5615 5617 5618 5619 5620 5621 5622 5623 5623 5624 5625 5626 5627 5628 5629 5630 5631 5632 5633 5634 5635 5636 5637 5638 5640 5641 5642 5645 5647 5649 5650 5651 5652 5654 5656 5659 5661 5663 5665 5667 5669 5671 5673 5675 5677 5679 5681 5682 5683 5684 5685 5686 5688 5690 5691 5693 5696 5698 5699 5701 5703 5704 5705 5705 5706 5707 5708 5708 5709 5711 5713 5714 5716 5717 5718 5720 5721 5722 5723 5724 5726 5727 5728 5729 5730
5609 5611 5612 5614 5615 5616 5617 5618 5619 5620 5621 5622 5623 5624 5624 5625 5626 5627 5628 5629 5629 5630 5631 5632 5633 5635 5636 5637 5638 5639 5642 5644 5645 5647 5647 5648 5650 5653 5655 5657 5659 5661 5664 5666 5668 5670 5671 5673 5676 5678 5678 5679 5680 5681 5683 5686 5687 5688 5691 5694 5696 5697 5699 5701 5701 5702 5703 5704 5705 5706 5706 5707 5710 5711 5712 5714 5715 5716 5718 5719 5720 5721 5722 5724 5725 5725 5726 5727
5608 5609 5611 5612 5613 5615 5616 5617 5618 5619 5620 5620 5621 5622 5622 5623 5624 5625 5626 5627 5627 5628 5629 5630 5630 5631 5633 5634 5635 5637 5639 5640 5642 5642 5643 5645 5647 5649 5651 5653 5656 5658 5661 5663 5664 5666 5668 5670 5672 5674 5675 5676 5676 5678 5680 5683 5684 5685 5688 5691 5693 5694 5696 5698 5698 5699 5700 5701 5702 5703 5704 5706 5708 5709 5710 5712 5713 5714 5716 5717 5718 5719 5720 5721 5722 5723 5724 5725
5607 5608 5609 5611 5612 5613 5615 5616 5616 5617 5618 5619 5619 5620 5621 5621 5622 5623 5623 5624 5625 5625 5626 5627 5628 5629 5630 5631 5632 5634 5635 5637 5638 5639 5640 5641 5643 5645 5648 5650 5653 5655 5657 5659 5661 5663 5665 5667 5669 5670 5671 5672 5673 5675 5677 5679 5681 5683 5685 5687 5689 5691 5693 5694 5695 5696 5698 5699 5699 5700 5702 5704 5706 5707 5708 5710 5711 5712 5713 5715 5716 5717 5718 5719 5720 5721 5722 5723
5606 5607 5608 5609 5611 5612 5613 5614 5615 5616 5616 5617 5617 5618 5619 5619 5620 5620 5621 5621 5622 5623 5623 5624 5625 5626 5627 5628 5629 5631 5632 5633 5634 5634 5635 5637 5639 5642 5644 5647 5650 5652 5654 5656 5658 5659 5661 5663 5665 5667 5668 5669 5670 5672 5674 5676 5678 5679 5681 5684 5686 5688 5689 5691 5692 5694 5695 5696 5697 5698 5700 5702 5704 5705 5706 5707 5708 5710 5711 5712 5714 5715 5716 5717 5719 5719 5720 5721
5604 5606 5607 5609 5610 5611 5612 5613 5613 5614 5615 5615 5616 5616 5617 5617 5617 5618 5618 5618 5619 5620 5621 5622 5622 5623 5624 5625 5626 5627 5627 5629 5630 5629 5631 5633 5636 5638 5640 5643 5646 5649 5651 5653 5655 5656 5657 5659 5661 5663 5664 5665 5666 5668 5670 5672 5674 5676 5678 5680 5682 5684 5686 5687 5689 5691 5692 5694 5695 5696 5698 5700 5702 5703 5704 5705 5706 5707 5709 5710 5711 5713 5714 5715 5717 5718 5718 5719
5603 5605 5606 5608 5609 5610 5611 5611 5612 5613 5613 5614 5614 5615 5615 5615 5615 5615 5616 5616 5616 5617 5618 5619 5619 5620 5620 5621 5622 5622 5622 5624 5625 5625 5627 5630 5632 5634 5636 5640 5643 5645 5647 5649 5651 5653 5654 5655 5657 5659 5660 5662 5663 5664 5666 5668 5670 5672 5674 5676 5678 5680 5682 5684 5686 5688 5690 5691 5693 5694 5696 5698 5699 5701 5702 5703 5704 5705 5706 5708 5709 5711 5712 5713 5715 5716 5716 5717
5603 5604 5606 5607 5608 5609 5609 5610 5611 5611 5612 5613 5613 5613 5613 5613 5613 5613 5613 5614 5614 5614 5615 5615 5616 5616 5616 5616 5617 5617 5618 5619 5620 5621 5623 5625 5628 5630 5633 5635 5638 5641 5643 5645 5648 5649 5650 5652 5653 5655 5657 5658 5659 5661 5662 5665 5667 5669 5670 5672 5674 5676 5679 5681 5683 5685 5687 5689 5690 5692 5693 5695 5697 5698 5700 5701 5701 5702 5704 5705 5707 5708 5710 5711 5712 5713 5714 5715
5602 5603 5605 5606 5607 5608 5609 5609 5610 5610 5611 5611 5611 5612 5612 5612 5612 5611 5611 5611 5611 5611 5612 5612 5612 5612 5612 5612 5612 5612 5613 5614 5615 5617 5619 5621 5624 5626 5629 5631 5633 5636 5638 5641 5644 5646 5647 5648 5650 5652 5653 5654 5656 5658 5659 5661 5663 5664 5666 5668 5671 5673 5675 5677 5679 5681 5683 5685 5687 5688 5690 5692 5694 5695 5697 5698 5699 5700 5701 5703 5704 5706 5707 5709 5710 5710 5711 5712